Miscellaneous Local Product
Issued by NWS North Platte, NE

Home | Current Version | Previous Version | Text Only | Print | Product List | Glossary On
Versions: 1 2 3 4 5 6 7 8 9 10 11 12 13 14 15 16 17 18 19 20 21 22 23 24 25 26 27 28 29 30 31 32 33 34 35 36 37 38 39 40 41 42 43 44 45 46 47 48 49 50
000
AXUS43 KLBF 060010
MISLBF


WESTERN AND NORTH CENTRAL NEBRASKA HOURLY WEATHER ROUNDUP
NATIONAL WEATHER SERVICE NORTH PLATTE NE
600 PM CST THU MAR 05 2015

***STATIONS NOT REPORTING VARIABLES SUCH AS SKY/WEATHER OR
PRESSURE ARE PROVIDED BY THE NEBRASKA DEPARTMENT OF
ROADS...RAWS...AND APRS NETWORKS...AND ARE NOT UNDER
NATIONAL WEATHER SERVICE QUALITY CONTROL***

...OBSERVATIONS IN AND NEAR THE EASTERN PANHANDLE OF NEBRASKA...

CITY           SKY/WX    TMP DP  RH WIND       PRES   REMARKS
PINE RIDGE     CLEAR     40  21  46 W14G21    30.14R WCI  32
CHADRON        CLEAR     39  22  50 W15       30.17R WCI  31
ALLIANCE       CLEAR     43  12  28 W18       30.17R
SIDNEY         PTCLDY    41  14  33 W17G26    30.20R
WHITECLAY        N/A     38  19  44 W16         N/A  WCI  30
LISCO            N/A     45   3  18 W18         N/A
BIG SPRINGS      N/A     47  17  29 W6          N/A
LEWELLEN         N/A     48   3  15 W12         N/A
$$

...OBSERVATIONS IN NORTH CENTRAL NEBRASKA...

CITY           SKY/WX    TMP DP  RH WIND       PRES   REMARKS
VALENTINE      CLOUDY    43   9  24 W7        30.14S
THEDFORD       MOCLDY    47  12  24 W7        30.16R
AINSWORTH      MOCLDY    42   8  25 W5        30.15S
O`NEILL        PTCLDY    38   6  27 S7        30.19S WCI  33
ORD            CLEAR     40   9  28 S12       30.20F WCI  33
BROKEN BOW     CLEAR     42  13  30 SE10      30.18F
BROWNLEE         N/A     46   2  16 W10         N/A
SPRINGVIEW       N/A     44  16  32 W3          N/A
BREWSTER         N/A     46   5  18 NW10        N/A
ROSE             N/A     43  10  25 W5          N/A
NEWPORT          N/A     42   8  24 SW5         N/A
SARGENT          N/A     43  14  30 S3          N/A
COMSTOCK         N/A     42   9  25 S9          N/A
CHAMBERS         N/A     38 -12  11 S3          N/A
EWING            N/A     36  10  34 S6          N/A  WCI  31
$$

...OBSERVATIONS IN SOUTHWEST NEBRASKA AND FAR NORTHEAST COLORADO...

CITY           SKY/WX    TMP DP  RH WIND       PRES   REMARKS
WRAY           FAIR      44  14  29 W7        30.23S
HOLYOKE        FAIR      46  12  25 W15       30.21S
IMPERIAL         N/A     46  12  25 W8        30.21R
OGALLALA       CLEAR     46  11  24 W15       30.19R
NORTH PLATTE   CLEAR     47   8  20 W12       30.18R
MCCOOK         MOCLDY    50  13  22 W12       30.22R
LEXINGTON      PTCLDY    44  10  25 S12       30.21F
PAXTON           N/A     48  17  28 W3          N/A
BRADY            N/A     48  10  21 S3G13       N/A
GOTHENBURG       N/A     48  14  25 SW3         N/A
CALLAWAY         N/A     45  13  27 SW7         N/A
$$

...NORTH PLATTE AREA...

CITY           SKY/WX    TMP DP  RH WIND       PRES   REMARKS
AIRPORT        CLEAR     47   8  20 W12       30.18R
DOWNTOWN         N/A     48  10  21 W6G14       N/A
$$

...SOME WEATHER OBSERVATIONS FROM AROUND THE REGION...

CITY           SKY/WX    TMP DP  RH WIND       PRES   REMARKS
DENVER         MOCLDY    32  20  61 W6        30.21R WCI  26
LARAMIE        CLEAR     31  13  47 W15       30.20R WCI  20
CHEYENNE       CLEAR     37  16  42 NW8       30.18R WCI  31
SCOTTSBLUFF    CLEAR     44  13  28 W14       30.20R
RAPID CITY     CLEAR     43  17  35 N16       30.11R
PIERRE         CLEAR     34  19  54 S8        30.11F WCI  27
WINNER         MOCLDY    42  15  33 W9        30.14R
SIOUX FALLS    PTCLDY    28   6  39 S13       30.26F WCI  17
OMAHA          PTCLDY    30   5  34 S14       30.41F WCI  19
GRAND ISLAND   PTCLDY    39   7  26 S10       30.27F WCI  32
KANSAS CITY    PTCLDY    29   5  36 S8        30.48S WCI  21
WICHITA        CLEAR     43  12  28 W7        30.41S
HAYS           MOCLDY    43   3  19 SW6       30.32S
LIBERAL        CLEAR     45  18  33 S6        30.34S
GOODLAND       MOCLDY    42  14  32 SW10      30.25R
$$



USA.gov is the U.S. government's official web portal to all federal, state and local government web resources and services.